DW9493 Weather Reports


Display with metric or nautical units.
time (UTC)temp
F
wind
direction
speed
MPH
gust
MPH
rain 1hr
in
rain 24hr
in
rain mn
in
humidity
%
barometer
mb
20260901025704 56 326 4.0 9.0 0.03 0.03 0.03 86 1028.1
20260901025138 57 311 2.0 8.0 0.03 0.03 0.03 84 1028.3
20260901023649 57 208 0.0 3.0 0.02 0.02 0.02 81 1028.9
20260901022645 58 228 3.0 9.0 0.02 0.02 0.02 80 1028.9
20260901022117 59 196 4.0 10.0 0.01 0.01 0.01 75 1028.8
20260901020645 62 199 1.0 7.0 0.00 0.00 0.00 67 1028.5
20260901020114 64 205 1.0 7.0 0.00 0.00 0.00 60 1028.0
20260901014640 64 145 0.0 3.0 0.00 0.00 0.00 58 1028.0
20260901014557 64 290 0.0 3.0 0.00 0.00 0.00 59 1027.6
20260901013054 64 333 3.0 10.0 0.00 0.00 0.00 59 1027.3
20260901011609 64 305 6.0 13.0 0.00 0.00 0.00 60 1026.9
20260901010608 64 305 8.0 18.0 0.00 0.00 0.00 60 1026.8
20260901010048 64 322 7.0 16.0 0.00 0.00 0.00 59 1026.6
20260901004607 64 302 7.0 15.0 0.00 0.00 0.00 60 1026.8
20260901003607 64 274 8.0 19.0 0.00 0.00 0.00 61 1026.8
20260901002606 65 332 7.0 18.0 0.00 0.00 0.00 59 1026.9
20260901001606 68 283 5.0 19.0 0.00 0.00 0.00 52 1027.0
20260901001527 70 326 1.0 5.0 0.00 0.00 0.00 43 1026.9
20260831235606 71 124 0.0 1.0 0.00 0.00 0.00 43 1026.8
20260831234606 71 32 0.0 3.0 0.00 0.00 0.00 41 1026.6
20260831233559 71 102 2.0 8.0 0.00 0.00 0.00 41 1026.5
20260831232551 71 63 1.0 5.0 0.00 0.00 0.00 41 1026.4
20260831231550 71 79 2.0 8.0 0.00 0.00 0.00 40 1026.5
20260831230547 72 114 1.0 7.0 0.00 0.00 0.00 41 1026.4
20260831225549 72 69 1.0 7.0 0.00 0.00 0.00 40 1026.4
20260831224525 71 36 2.0 9.0 0.00 0.00 0.00 41 1026.5
20260831223525 71 43 2.0 9.0 0.00 0.00 0.00 41 1026.6
20260831222520 72 113 2.0 10.0 0.00 0.00 0.00 41 1026.8
20260831221516 72 19 2.0 7.0 0.00 0.00 0.00 42 1026.8
20260831220516 72 94 1.0 6.0 0.00 0.00 0.00 41 1026.9
20260831215514 72 25 2.0 7.0 0.00 0.00 0.00 42 1026.9
20260831214514 72 70 2.0 8.0 0.00 0.00 0.00 41 1026.9
20260831213512 72 116 3.0 10.0 0.00 0.00 0.00 42 1026.9
20260831212512 72 44 3.0 12.0 0.00 0.00 0.00 41 1026.9
20260831211509 72 40 3.0 10.0 0.00 0.00 0.00 41 1027.1
20260831210510 73 89 3.0 11.0 0.00 0.00 0.00 42 1027.3
20260831205945 72 63 3.0 10.0 0.00 0.02 0.00 42 1027.3
20260831204953 71 51 2.0 9.0 0.00 0.02 0.00 43 1027.4
20260831203956 71 16 3.0 8.0 0.00 0.03 0.00 44 1027.5
20260831202453 71 37 3.0 9.0 0.00 0.06 0.00 43 1027.5
20260831201450 72 60 3.0 9.0 0.00 0.06 0.00 46 1027.8
20260831200448 71 64 2.0 6.0 0.00 0.06 0.00 44 1027.9
20260831195450 71 340 2.0 7.0 0.00 0.06 0.00 44 1028.0
20260831194450 71 82 2.0 5.0 0.00 0.06 0.00 44 1028.0
20260831193446 71 88 1.0 8.0 0.00 0.06 0.00 43 1028.1
20260831192935 71 48 2.0 6.0 0.00 0.06 0.00 43 1028.3
20260831191431 71 23 2.0 8.0 0.00 0.06 0.00 41 1028.4
20260831190421 71 82 2.0 8.0 0.00 0.06 0.00 40 1028.5
20260831185418 71 125 1.0 9.0 0.00 0.06 0.00 42 1028.5
20260831184417 70 26 1.0 6.0 0.00 0.06 0.00 42 1028.8
20260831183416 69 125 1.0 4.0 0.00 0.06 0.00 42 1028.8
20260831182417 69 87 1.0 3.0 0.00 0.06 0.00 42 1028.9
20260831181416 70 79 1.0 5.0 0.00 0.06 0.00 42 1028.9
20260831180416 70 93 1.0 4.0 0.00 0.06 0.00 42 1028.9
20260831175409 70 175 2.0 7.0 0.00 0.06 0.00 42 1029.0
20260831174407 69 39 2.0 8.0 0.00 0.06 0.00 42 1028.9
20260831173407 70 84 1.0 6.0 0.00 0.06 0.00 42 1029.0
20260831172408 70 107 1.0 6.0 0.00 0.06 0.00 42 1029.0
20260831171401 71 133 0.0 3.0 0.00 0.06 0.00 43 1029.0
20260831170358 71 50 0.0 3.0 0.00 0.06 0.00 42 1029.0
20260831165357 71 33 0.0 2.0 0.00 0.06 0.00 40 1029.2
20260831164357 71 96 0.0 4.0 0.00 0.06 0.00 41 1029.2
20260831163353 71 126 0.0 2.0 0.00 0.06 0.00 40 1029.2
20260831162350 72 184 0.0 2.0 0.00 0.06 0.00 40 1029.0
20260831161350 70 114 0.0 2.0 0.00 0.06 0.00 41 1029.0
20260831160347 69 108 0.0 1.0 0.00 0.06 0.00 41 1028.8
20260831155347 69 30 0.0 2.0 0.00 0.06 0.00 40 1028.8
20260831154347 70 100 0.0 3.0 0.00 0.06 0.00 40 1028.8
20260831153346 71 99 0.0 4.0 0.00 0.06 0.00 38 1028.8
20260831152345 71 91 0.0 2.0 0.00 0.06 0.00 39 1028.8
20260831151817 71 95 0.0 1.0 0.00 0.06 0.00 40 1028.6
20260831150823 71 315 0.0 0.0 0.00 0.06 0.00 41 1028.6
20260831145340 68 315 0.0 1.0 0.00 0.06 0.00 47 1028.8
20260831144338 65 315 0.0 1.0 0.00 0.06 0.00 47 1028.8
20260831143335 64 315 0.0 0.0 0.00 0.06 0.00 52 1028.8
20260831142336 62 316 0.0 1.0 0.00 0.06 0.00 54 1028.6
20260831141335 61 316 0.0 0.0 0.00 0.06 0.00 58 1028.6
20260831140334 59 315 0.0 0.0 0.00 0.06 0.00 65 1028.5
20260831135332 58 316 0.0 0.0 0.00 0.06 0.00 66 1028.3
20260831134809 57 316 0.0 0.0 0.00 0.06 0.00 65 1028.1
20260831133326 56 316 0.0 0.0 0.00 0.06 0.00 62 1028.0
20260831132806 55 315 0.0 0.0 0.00 0.06 0.00 63 1028.0
20260831131323 55 315 0.0 1.0 0.00 0.06 0.00 62 1027.8
20260831130324 55 316 0.0 2.0 0.00 0.06 0.00 65 1027.5
20260831125756 54 315 0.0 1.0 0.00 0.06 0.00 68 1027.5
20260831124319 54 315 0.0 0.0 0.00 0.06 0.00 69 1027.4
20260831123803 53 315 0.0 1.0 0.00 0.06 0.00 69 1027.4
20260831122320 53 315 0.0 1.0 0.00 0.06 0.00 66 1027.3
20260831121321 54 315 0.0 1.0 0.00 0.06 0.00 68 1027.3
20260831120806 54 315 0.0 1.0 0.00 0.06 0.00 67 1027.1
20260831115320 54 315 0.0 1.0 0.00 0.06 0.00 65 1027.0
20260831114306 55 314 0.0 0.0 0.00 0.06 0.00 63 1026.9
20260831113737 55 315 0.0 1.0 0.00 0.06 0.00 62 1027.0
20260831112301 55 314 0.0 1.0 0.00 0.06 0.00 63 1026.9
20260831111259 55 314 1.0 5.0 0.00 0.06 0.00 62 1026.9
20260831110258 55 257 1.0 3.0 0.00 0.06 0.00 65 1026.8
20260831105258 55 326 0.0 2.0 0.00 0.06 0.00 64 1026.8
20260831104257 55 326 0.0 2.0 0.00 0.06 0.00 64 1026.8
20260831103228 55 229 0.0 3.0 0.00 0.06 0.00 62 1026.6
20260831102226 55 205 2.0 5.0 0.00 0.06 0.00 65 1026.5
20260831101224 54 236 0.0 2.0 0.00 0.06 0.00 66 1026.4
20260831100222 53 317 0.0 2.0 0.00 0.06 0.00 67 1026.6
20260831095222 53 252 0.0 1.0 0.00 0.06 0.00 69 1026.5
20260831094658 54 315 0.0 2.0 0.00 0.06 0.00 69 1026.3
20260831093218 55 266 0.0 1.0 0.00 0.06 0.00 64 1026.4
20260831092218 54 245 0.0 1.0 0.00 0.06 0.00 67 1026.3
20260831091214 54 308 0.0 1.0 0.00 0.06 0.00 68 1026.3
20260831090215 54 304 0.0 1.0 0.00 0.06 0.00 68 1026.1
20260831085210 53 305 0.0 1.0 0.00 0.06 0.00 72 1026.1
20260831084204 54 304 0.0 1.0 0.00 0.06 0.00 71 1026.3
20260831083157 55 305 0.0 2.0 0.00 0.06 0.00 69 1026.3
20260831082559 55 203 0.0 0.0 0.00 0.06 0.00 67 1026.5
20260831082229 55 203 0.0 1.0 0.00 0.06 0.00 67 1026.4
20260831080153 55 203 0.0 1.0 0.00 0.06 0.00 64 1026.4
20260831075151 56 203 0.0 1.0 0.00 0.06 0.00 63 1026.6
20260831074149 56 224 0.0 1.0 0.00 0.06 0.00 63 1026.6
20260831073150 56 330 0.0 1.0 0.00 0.06 0.00 63 1026.9
20260831072143 57 330 0.0 1.0 0.00 0.06 0.00 62 1026.9
20260831071143 58 256 1.0 3.0 0.00 0.06 0.00 58 1027.0
20260831070625 58 226 0.0 1.0 0.00 0.06 0.00 57 1027.0
20260831065142 58 225 0.0 2.0 0.00 0.06 0.00 57 1027.1
20260831064139 58 322 0.0 1.0 0.00 0.06 0.00 59 1026.9
20260831064057 58 352 0.0 1.0 0.00 0.06 0.00 59 1027.0
20260831062611 59 357 0.0 1.0 0.00 0.06 0.00 56 1027.3
20260831061134 60 53 0.0 0.0 0.00 0.06 0.00 54 1027.4
20260831060606 61 53 0.0 2.0 0.00 0.06 0.00 51 1027.4
20260831055108 61 341 2.0 5.0 0.00 0.06 0.06 52 1027.6
20260831054108 61 249 2.0 6.0 0.00 0.06 0.06 52 1027.6
20260831053104 61 322 0.0 2.0 0.00 0.06 0.06 54 1027.9
20260831052102 62 253 1.0 3.0 0.00 0.06 0.06 51 1027.9
20260831051100 63 255 1.0 3.0 0.00 0.06 0.06 49 1028.0
20260831050057 63 235 3.0 8.0 0.00 0.06 0.06 47 1028.0
20260831045532 63 246 3.0 5.0 0.00 0.06 0.06 49 1028.5
20260831044056 63 267 3.0 7.0 0.00 0.06 0.06 49 1028.6
20260831043056 60 253 2.0 9.0 0.00 0.06 0.06 54 1028.6
20260831042057 59 317 1.0 4.0 0.00 0.06 0.06 63 1028.4
20260831041534 58 341 0.0 1.0 0.00 0.06 0.06 65 1028.1
20260831040053 58 248 0.0 2.0 0.00 0.06 0.06 65 1027.9
20260831035046 58 314 0.0 4.0 0.00 0.06 0.06 65 1027.6
20260831034529 58 103 0.0 0.0 0.00 0.06 0.06 64 1027.5
20260831033044 58 103 0.0 0.0 0.00 0.06 0.06 63 1027.4
20260831032043 58 103 0.0 2.0 0.00 0.06 0.06 62 1027.5
20260831031042 59 321 0.0 2.0 0.00 0.06 0.06 60 1027.3